Location: Unspecified
(42.9300°N, 71.1866°W)
Time: 11:34:00
(UTC-04:00)

Okean 3 - Visible Passes

Search period start: 26 April 2018 00:00
Search period end: 06 May 2018 00:00
Orbit: 578 x 601 km, 82.5° (Epoch: 25 April)

Date Brightness Start Highest point End Pass type
(mag) Time Alt. Az. Time Alt. Az. Time Alt. Az.
26 Apr 5.9 01:03:39 19° NNW 01:03:39 19° NNW 01:05:13 10° NNW visible
26 Apr 5.9 23:35:00 16° NE 23:35:00 16° NE 23:36:06 10° NNE visible
27 Apr 6.0 01:11:32 16° NW 01:11:32 16° NW 01:12:57 10° NNW visible
27 Apr 5.7 23:42:52 21° NNE 23:42:52 21° NNE 23:44:26 10° NNE visible
28 Apr 6.2 01:19:23 13° NW 01:19:23 13° NW 01:20:25 10° NNW visible
28 Apr 5.5 23:50:43 26° NNE 23:50:43 26° NNE 23:52:38 10° NNE visible
29 Apr 5.3 23:58:33 29° N 23:58:33 29° N 00:00:45 10° N visible
30 Apr 6.1 22:29:51 10° NE 22:29:51 10° NE 22:30:01 10° NE visible
01 May 5.3 00:06:22 30° NNW 00:06:22 30° NNW 00:08:46 10° N visible
01 May 5.7 22:37:39 15° NE 22:37:39 15° NE 22:38:53 10° NE visible
02 May 5.4 00:14:10 26° NW 00:14:10 26° NW 00:16:39 10° N visible
02 May 5.3 22:45:27 22° NE 22:45:27 22° NE 22:47:26 10° NNE visible
03 May 5.7 00:21:57 21° NW 00:21:57 21° NW 00:24:24 10° NNW visible
03 May 4.8 22:53:12 31° NE 22:53:12 31° NE 22:55:47 10° NNE visible
04 May 5.9 00:29:43 16° WNW 00:29:43 16° WNW 00:31:57 10° NNW visible
04 May 4.3 23:00:56 44° NNE 23:00:56 44° NNE 23:04:01 10° NNE visible
05 May 6.2 00:37:28 11° WNW 00:37:28 11° WNW 00:38:53 10° NW visible
05 May 4.1 23:08:40 56° N 23:08:40 56° N 23:12:08 10° N visible
